Time,TemperatureF,DewpointF,PressureIn,WindDirection,WindDirectionDegrees,WindSpeedMPH,WindSpeedGustMPH,Humidity,HourlyPrecipIn,Conditions,Clouds,dailyrainin,SoftwareType,DateUTC
2013-01-26 00:00:00,56.8,51.1,29.84,North,-999,-999.0,-999.0,44,0.00,,,0.00,meteohub,2013-01-26 08:00:00,
2013-01-26 00:05:00,56.8,51.1,29.84,North,-999,-999.0,-999.0,44,0.00,,,0.00,meteohub,2013-01-26 08:05:00,
2013-01-26 00:10:00,56.7,50.9,29.84,North,-999,-999.0,-999.0,44,0.00,,,0.00,meteohub,2013-01-26 08:10:00,
2013-01-26 00:16:00,56.5,50.7,29.84,North,-999,-999.0,-999.0,44,0.00,,,0.00,meteohub,2013-01-26 08:16:00,
2013-01-26 00:21:00,56.3,50.5,29.84,North,-999,-999.0,-999.0,44,0.00,,,0.00,meteohub,2013-01-26 08:21:00,
2013-01-26 00:26:00,56.3,50.5,29.81,North,-999,-999.0,-999.0,44,0.00,,,0.00,meteohub,2013-01-26 08:26:00,
2013-01-26 00:31:00,56.1,50.4,29.81,North,-999,-999.0,-999.0,44,0.00,,,0.00,meteohub,2013-01-26 08:31:00,
2013-01-26 00:36:00,56.1,50.4,29.81,North,-999,-999.0,-999.0,44,0.00,,,0.00,meteohub,2013-01-26 08:36:00,
2013-01-26 00:41:00,55.9,50.2,29.81,North,-999,-999.0,-999.0,44,0.00,,,0.00,meteohub,2013-01-26 08:41:00,
2013-01-26 00:46:00,55.8,50.0,29.81,North,-999,-999.0,-999.0,44,0.00,,,0.00,meteohub,2013-01-26 08:46:00,
2013-01-26 00:51:00,55.6,49.8,29.81,North,-999,-999.0,-999.0,44,0.00,,,0.00,meteohub,2013-01-26 08:51:00,
2013-01-26 00:56:00,55.6,49.8,29.81,North,-999,-999.0,-999.0,44,0.00,,,0.00,meteohub,2013-01-26 08:56:00,
2013-01-26 01:01:00,55.4,49.6,29.81,North,-999,-999.0,-999.0,44,0.00,,,0.00,meteohub,2013-01-26 09:01:00,
2013-01-26 01:06:00,55.4,49.6,29.81,North,-999,-999.0,-999.0,44,0.00,,,0.00,meteohub,2013-01-26 09:06:00,
2013-01-26 01:12:00,55.4,49.6,29.81,North,-999,-999.0,-999.0,44,0.00,,,0.00,meteohub,2013-01-26 09:12:00,
2013-01-26 01:17:00,55.0,49.3,29.81,North,-999,-999.0,-999.0,44,0.00,,,0.00,meteohub,2013-01-26 09:17:00,
2013-01-26 01:22:00,54.9,49.1,29.81,North,-999,-999.0,-999.0,44,0.00,,,0.00,meteohub,2013-01-26 09:22:00,
2013-01-26 01:27:00,54.9,49.1,29.81,North,-999,-999.0,-999.0,44,0.00,,,0.00,meteohub,2013-01-26 09:27:00,
2013-01-26 01:32:00,54.9,49.1,29.81,North,-999,-999.0,-999.0,44,0.00,,,0.00,meteohub,2013-01-26 09:32:00,
2013-01-26 01:37:00,54.9,49.5,29.81,North,-999,-999.0,-999.0,44,0.00,,,0.00,meteohub,2013-01-26 09:37:00,
2013-01-26 01:42:00,54.7,49.3,29.81,North,-999,-999.0,-999.0,44,0.00,,,0.00,meteohub,2013-01-26 09:42:00,
2013-01-26 01:47:00,54.7,49.3,29.81,North,-999,-999.0,-999.0,44,0.00,,,0.00,meteohub,2013-01-26 09:47:00,
2013-01-26 01:52:00,54.5,49.1,29.81,North,-999,-999.0,-999.0,44,0.00,,,0.00,meteohub,2013-01-26 09:52:00,
2013-01-26 01:57:00,54.5,49.1,29.81,North,-999,-999.0,-999.0,44,0.00,,,0.00,meteohub,2013-01-26 09:57:00,
2013-01-26 02:02:00,54.3,48.9,29.81,North,-999,-999.0,-999.0,44,0.00,,,0.00,meteohub,2013-01-26 10:02:00,
2013-01-26 02:07:00,54.1,48.7,29.81,North,-999,-999.0,-999.0,44,0.00,,,0.00,meteohub,2013-01-26 10:07:00,
2013-01-26 02:12:00,54.1,48.7,29.81,North,-999,-999.0,-999.0,44,0.00,,,0.00,meteohub,2013-01-26 10:12:00,
2013-01-26 02:17:00,54.0,48.6,29.81,North,-999,-999.0,-999.0,44,0.00,,,0.00,meteohub,2013-01-26 10:17:00,
2013-01-26 02:22:00,54.0,48.6,29.81,North,-999,-999.0,-999.0,44,0.00,,,0.00,meteohub,2013-01-26 10:22:00,
2013-01-26 02:27:00,54.0,48.6,29.81,North,-999,-999.0,-999.0,44,0.00,,,0.00,meteohub,2013-01-26 10:27:00,
2013-01-26 02:32:00,53.8,48.4,29.81,North,-999,-999.0,-999.0,44,0.00,,,0.00,meteohub,2013-01-26 10:32:00,
2013-01-26 02:37:00,53.8,48.4,29.81,North,-999,-999.0,-999.0,44,0.00,,,0.00,meteohub,2013-01-26 10:37:00,
2013-01-26 02:42:00,53.6,48.2,29.81,North,-999,-999.0,-999.0,44,0.00,,,0.00,meteohub,2013-01-26 10:42:00,
2013-01-26 02:47:00,53.4,48.4,29.81,North,-999,-999.0,-999.0,44,0.00,,,0.00,meteohub,2013-01-26 10:47:00,
2013-01-26 02:52:00,53.4,48.4,29.81,North,-999,-999.0,-999.0,44,0.00,,,0.00,meteohub,2013-01-26 10:52:00,
2013-01-26 02:57:00,53.2,47.8,29.81,North,-999,-999.0,-999.0,44,0.00,,,0.00,meteohub,2013-01-26 10:57:00,
2013-01-26 03:02:00,53.1,47.7,29.81,North,-999,-999.0,-999.0,44,0.00,,,0.00,meteohub,2013-01-26 11:02:00,
2013-01-26 03:07:00,53.1,47.7,29.81,North,-999,-999.0,-999.0,44,0.00,,,0.00,meteohub,2013-01-26 11:07:00,
2013-01-26 03:12:00,52.9,47.5,29.81,North,-999,-999.0,-999.0,44,0.00,,,0.00,meteohub,2013-01-26 11:12:00,
2013-01-26 03:17:00,52.7,47.3,29.81,North,-999,-999.0,-999.0,44,0.00,,,0.00,meteohub,2013-01-26 11:17:00,
2013-01-26 03:22:00,52.7,47.3,29.81,North,-999,-999.0,-999.0,44,0.00,,,0.00,meteohub,2013-01-26 11:22:00,
2013-01-26 03:27:00,52.5,47.1,29.81,North,-999,-999.0,-999.0,44,0.00,,,0.00,meteohub,2013-01-26 11:27:00,
2013-01-26 03:32:00,52.5,47.1,29.81,North,-999,-999.0,-999.0,44,0.00,,,0.00,meteohub,2013-01-26 11:32:00,
2013-01-26 03:37:00,52.3,46.9,29.81,North,-999,-999.0,-999.0,44,0.00,,,0.00,meteohub,2013-01-26 11:37:00,
2013-01-26 03:42:00,52.3,47.3,29.81,North,-999,-999.0,-999.0,44,0.00,,,0.00,meteohub,2013-01-26 11:42:00,
2013-01-26 03:47:00,52.3,47.3,29.81,North,-999,-999.0,-999.0,44,0.00,,,0.00,meteohub,2013-01-26 11:47:00,
2013-01-26 03:52:00,52.3,47.3,29.81,North,-999,-999.0,-999.0,44,0.00,,,0.00,meteohub,2013-01-26 11:52:00,
2013-01-26 03:57:00,52.3,47.3,29.81,North,-999,-999.0,-999.0,44,0.00,,,0.00,meteohub,2013-01-26 11:57:00,
2013-01-26 04:02:00,52.3,47.3,29.81,North,-999,-999.0,-999.0,44,0.00,,,0.00,meteohub,2013-01-26 12:02:00,
2013-01-26 04:07:00,52.5,47.5,29.81,North,-999,-999.0,-999.0,44,0.00,,,0.00,meteohub,2013-01-26 12:07:00,
2013-01-26 04:12:00,52.5,47.5,29.81,North,-999,-999.0,-999.0,44,0.00,,,0.00,meteohub,2013-01-26 12:12:00,
2013-01-26 04:17:00,52.7,48.0,29.81,North,-999,-999.0,-999.0,44,0.00,,,0.00,meteohub,2013-01-26 12:17:00,
2013-01-26 04:22:00,52.9,48.2,29.81,North,-999,-999.0,-999.0,44,0.00,,,0.00,meteohub,2013-01-26 12:22:00,
2013-01-26 04:27:00,53.1,48.4,29.81,North,-999,-999.0,-999.0,44,0.00,,,0.00,meteohub,2013-01-26 12:27:00,
2013-01-26 04:32:00,53.2,48.9,29.81,North,-999,-999.0,-999.0,44,0.00,,,0.00,meteohub,2013-01-26 12:32:00,
2013-01-26 04:37:00,53.2,48.9,29.81,North,-999,-999.0,-999.0,44,0.00,,,0.00,meteohub,2013-01-26 12:37:00,
2013-01-26 04:42:00,53.4,49.1,29.81,North,-999,-999.0,-999.0,44,0.00,,,0.00,meteohub,2013-01-26 12:42:00,
2013-01-26 04:47:00,53.6,49.3,29.81,North,-999,-999.0,-999.0,44,0.00,,,0.00,meteohub,2013-01-26 12:47:00,
2013-01-26 04:52:00,53.6,49.3,29.81,North,-999,-999.0,-999.0,44,0.00,,,0.00,meteohub,2013-01-26 12:52:00,
2013-01-26 04:57:00,53.8,49.5,29.81,North,-999,-999.0,-999.0,44,0.00,,,0.00,meteohub,2013-01-26 12:57:00,
2013-01-26 05:02:00,53.8,49.5,29.81,North,-999,-999.0,-999.0,44,0.00,,,0.00,meteohub,2013-01-26 13:02:00,
2013-01-26 05:07:00,54.0,49.6,29.81,North,-999,-999.0,-999.0,44,0.00,,,0.00,meteohub,2013-01-26 13:07:00,
2013-01-26 05:12:00,54.0,49.6,29.81,North,-999,-999.0,-999.0,44,0.00,,,0.00,meteohub,2013-01-26 13:12:00,
2013-01-26 05:17:00,54.1,49.8,29.81,North,-999,-999.0,-999.0,44,0.00,,,0.00,meteohub,2013-01-26 13:17:00,
2013-01-26 05:22:00,54.1,49.8,29.81,North,-999,-999.0,-999.0,44,0.00,,,0.00,meteohub,2013-01-26 13:22:00,
2013-01-26 05:27:00,54.1,49.8,29.81,North,-999,-999.0,-999.0,44,0.00,,,0.00,meteohub,2013-01-26 13:27:00,
2013-01-26 05:32:00,54.3,49.8,29.81,North,-999,-999.0,-999.0,44,0.00,,,0.00,meteohub,2013-01-26 13:32:00,
2013-01-26 05:37:00,54.3,49.8,29.81,North,-999,-999.0,-999.0,44,0.00,,,0.00,meteohub,2013-01-26 13:37:00,
2013-01-26 05:42:00,54.3,49.8,29.81,North,-999,-999.0,-999.0,44,0.00,,,0.00,meteohub,2013-01-26 13:42:00,
2013-01-26 05:47:00,54.3,49.8,29.81,North,-999,-999.0,-999.0,44,0.00,,,0.00,meteohub,2013-01-26 13:47:00,
2013-01-26 05:52:00,54.3,50.2,29.81,North,-999,-999.0,-999.0,44,0.00,,,0.00,meteohub,2013-01-26 13:52:00,
2013-01-26 05:57:00,54.3,50.2,29.81,North,-999,-999.0,-999.0,44,0.00,,,0.00,meteohub,2013-01-26 13:57:00,
2013-01-26 06:02:00,54.5,50.4,29.81,North,-999,-999.0,-999.0,44,0.00,,,0.00,meteohub,2013-01-26 14:02:00,
2013-01-26 06:07:00,54.5,50.4,29.81,North,-999,-999.0,-999.0,44,0.00,,,0.00,meteohub,2013-01-26 14:07:00,
2013-01-26 06:12:00,54.5,50.4,29.81,North,-999,-999.0,-999.0,44,0.00,,,0.00,meteohub,2013-01-26 14:12:00,
2013-01-26 06:17:00,54.7,50.5,29.81,North,-999,-999.0,-999.0,44,0.00,,,0.00,meteohub,2013-01-26 14:17:00,
2013-01-26 06:22:00,54.7,50.5,29.81,North,-999,-999.0,-999.0,44,0.00,,,0.00,meteohub,2013-01-26 14:22:00,
2013-01-26 06:28:00,54.7,50.5,29.81,North,-999,-999.0,-999.0,44,0.00,,,0.00,meteohub,2013-01-26 14:28:00,
2013-01-26 06:33:00,54.9,50.7,29.81,North,-999,-999.0,-999.0,44,0.00,,,0.00,meteohub,2013-01-26 14:33:00,
2013-01-26 06:38:00,54.9,50.7,29.81,North,-999,-999.0,-999.0,44,0.00,,,0.00,meteohub,2013-01-26 14:38:00,
2013-01-26 06:43:00,54.9,50.7,29.81,North,-999,-999.0,-999.0,44,0.00,,,0.00,meteohub,2013-01-26 14:43:00,
2013-01-26 06:48:00,55.0,50.9,29.81,North,-999,-999.0,-999.0,44,0.00,,,0.00,meteohub,2013-01-26 14:48:00,
2013-01-26 06:53:00,55.0,50.9,29.81,North,-999,-999.0,-999.0,44,0.00,,,0.00,meteohub,2013-01-26 14:53:00,
2013-01-26 06:58:00,55.0,50.9,29.81,North,-999,-999.0,-999.0,45,0.00,,,0.00,meteohub,2013-01-26 14:58:00,
2013-01-26 07:03:00,55.0,50.9,29.81,North,-999,-999.0,-999.0,45,0.00,,,0.00,meteohub,2013-01-26 15:03:00,
2013-01-26 07:08:00,55.0,50.9,29.81,North,-999,-999.0,-999.0,44,0.00,,,0.00,meteohub,2013-01-26 15:08:00,
2013-01-26 07:13:00,55.0,50.9,29.81,North,-999,-999.0,-999.0,45,0.00,,,0.00,meteohub,2013-01-26 15:13:00,
2013-01-26 07:18:00,55.0,50.9,29.81,North,-999,-999.0,-999.0,45,0.00,,,0.00,meteohub,2013-01-26 15:18:00,
2013-01-26 07:24:00,55.2,51.1,29.81,North,-999,-999.0,-999.0,45,0.00,,,0.00,meteohub,2013-01-26 15:24:00,
2013-01-26 07:29:00,55.2,51.1,29.81,North,-999,-999.0,-999.0,45,0.00,,,0.00,meteohub,2013-01-26 15:29:00,
2013-01-26 07:34:00,55.2,51.1,29.81,North,-999,-999.0,-999.0,45,0.00,,,0.00,meteohub,2013-01-26 15:34:00,
2013-01-26 07:39:00,55.2,51.1,29.81,North,-999,-999.0,-999.0,45,0.00,,,0.00,meteohub,2013-01-26 15:39:00,
2013-01-26 07:44:00,55.2,51.1,29.81,North,-999,-999.0,-999.0,45,0.00,,,0.00,meteohub,2013-01-26 15:44:00,
2013-01-26 07:49:00,55.2,51.1,29.81,North,-999,-999.0,-999.0,45,0.00,,,0.00,meteohub,2013-01-26 15:49:00,
2013-01-26 07:54:00,55.2,51.1,29.81,North,-999,-999.0,-999.0,45,0.00,,,0.00,meteohub,2013-01-26 15:54:00,
2013-01-26 07:59:00,55.0,50.9,29.81,North,-999,-999.0,-999.0,45,0.00,,,0.00,meteohub,2013-01-26 15:59:00,
2013-01-26 08:04:00,55.2,51.1,29.81,North,-999,-999.0,-999.0,45,0.00,,,0.00,meteohub,2013-01-26 16:04:00,
2013-01-26 08:09:00,55.2,51.1,29.81,North,-999,-999.0,-999.0,45,0.00,,,0.00,meteohub,2013-01-26 16:09:00,
2013-01-26 08:15:00,55.4,51.3,29.81,North,-999,-999.0,-999.0,45,0.00,,,0.00,meteohub,2013-01-26 16:15:00,
2013-01-26 08:20:00,55.6,51.4,29.81,North,-999,-999.0,-999.0,45,0.00,,,0.00,meteohub,2013-01-26 16:20:00,
2013-01-26 08:25:00,55.6,51.4,29.81,North,-999,-999.0,-999.0,45,0.00,,,0.00,meteohub,2013-01-26 16:25:00,
2013-01-26 08:30:00,55.8,51.6,29.81,North,-999,-999.0,-999.0,44,0.00,,,0.00,meteohub,2013-01-26 16:30:00,
2013-01-26 08:35:00,55.9,51.8,29.81,North,-999,-999.0,-999.0,44,0.00,,,0.00,meteohub,2013-01-26 16:35:00,
2013-01-26 08:40:00,55.9,51.8,29.81,North,-999,-999.0,-999.0,44,0.00,,,0.00,meteohub,2013-01-26 16:40:00,
2013-01-26 08:45:00,56.1,52.0,29.81,North,-999,-999.0,-999.0,44,0.00,,,0.00,meteohub,2013-01-26 16:45:00,
2013-01-26 08:50:00,56.3,52.5,29.81,North,-999,-999.0,-999.0,44,0.00,,,0.00,meteohub,2013-01-26 16:50:00,
2013-01-26 08:55:00,56.3,52.5,29.81,North,-999,-999.0,-999.0,44,0.00,,,0.00,meteohub,2013-01-26 16:55:00,
2013-01-26 09:01:00,56.5,52.7,29.81,North,-999,-999.0,-999.0,44,0.00,,,0.00,meteohub,2013-01-26 17:01:00,
2013-01-26 09:06:00,56.7,52.9,29.81,North,-999,-999.0,-999.0,44,0.00,,,0.00,meteohub,2013-01-26 17:06:00,
2013-01-26 09:11:00,56.7,52.9,29.81,North,-999,-999.0,-999.0,44,0.00,,,0.00,meteohub,2013-01-26 17:11:00,
2013-01-26 09:16:00,56.8,53.1,29.81,North,-999,-999.0,-999.0,44,0.00,,,0.00,meteohub,2013-01-26 17:16:00,
2013-01-26 09:21:00,56.8,53.1,29.81,North,-999,-999.0,-999.0,44,0.00,,,0.00,meteohub,2013-01-26 17:21:00,
2013-01-26 09:26:00,57.0,53.2,29.81,North,-999,-999.0,-999.0,44,0.00,,,0.00,meteohub,2013-01-26 17:26:00,
2013-01-26 09:31:00,57.2,53.1,29.81,North,-999,-999.0,-999.0,44,0.00,,,0.00,meteohub,2013-01-26 17:31:00,
2013-01-26 09:36:00,57.2,53.1,29.81,North,-999,-999.0,-999.0,44,0.00,,,0.00,meteohub,2013-01-26 17:36:00,
2013-01-26 09:41:00,57.0,52.9,29.84,North,-999,-999.0,-999.0,44,0.00,,,0.00,meteohub,2013-01-26 17:41:00,
2013-01-26 09:47:00,57.0,52.9,29.84,North,-999,-999.0,-999.0,44,0.00,,,0.00,meteohub,2013-01-26 17:47:00,
2013-01-26 09:52:00,57.0,52.9,29.84,North,-999,-999.0,-999.0,44,0.00,,,0.00,meteohub,2013-01-26 17:52:00,
2013-01-26 09:57:00,57.2,52.7,29.84,North,-999,-999.0,-999.0,44,0.00,,,0.00,meteohub,2013-01-26 17:57:00,
2013-01-26 10:02:00,56.8,52.0,29.84,North,-999,-999.0,-999.0,44,0.00,,,0.00,meteohub,2013-01-26 18:02:00,
2013-01-26 10:07:00,57.2,51.4,29.84,North,-999,-999.0,-999.0,44,0.00,,,0.00,meteohub,2013-01-26 18:07:00,
2013-01-26 10:12:00,57.4,50.9,29.84,North,-999,-999.0,-999.0,44,0.00,,,0.00,meteohub,2013-01-26 18:12:00,
2013-01-26 10:17:00,57.6,49.3,29.84,North,-999,-999.0,-999.0,44,0.00,,,0.00,meteohub,2013-01-26 18:17:00,
2013-01-26 10:22:00,57.6,39.0,29.84,North,-999,-999.0,-999.0,44,0.00,,,0.00,meteohub,2013-01-26 18:22:00,
2013-01-26 10:27:00,58.1,37.4,29.84,North,-999,-999.0,-999.0,44,0.00,,,0.00,meteohub,2013-01-26 18:27:00,
2013-01-26 10:32:00,58.5,34.9,29.84,North,-999,-999.0,-999.0,44,0.00,,,0.00,meteohub,2013-01-26 18:32:00,
2013-01-26 10:37:00,59.0,37.0,29.84,North,-999,-999.0,-999.0,44,0.00,,,0.00,meteohub,2013-01-26 18:37:00,
2013-01-26 10:42:00,59.4,37.4,29.84,North,-999,-999.0,-999.0,44,0.00,,,0.00,meteohub,2013-01-26 18:42:00,
2013-01-26 10:47:00,59.5,37.0,29.84,North,-999,-999.0,-999.0,44,0.00,,,0.00,meteohub,2013-01-26 18:47:00,
2013-01-26 10:52:00,59.9,36.1,29.84,North,-999,-999.0,-999.0,44,0.00,,,0.00,meteohub,2013-01-26 18:52:00,
2013-01-26 10:57:00,60.3,36.5,29.84,North,-999,-999.0,-999.0,44,0.00,,,0.00,meteohub,2013-01-26 18:57:00,
2013-01-26 11:02:00,60.3,34.5,29.84,North,-999,-999.0,-999.0,44,0.00,,,0.00,meteohub,2013-01-26 19:02:00,
2013-01-26 11:07:00,60.4,34.0,29.84,North,-999,-999.0,-999.0,44,0.00,,,0.00,meteohub,2013-01-26 19:07:00,
2013-01-26 11:12:00,60.6,34.9,29.84,North,-999,-999.0,-999.0,44,0.00,,,0.00,meteohub,2013-01-26 19:12:00,
2013-01-26 11:17:00,61.0,36.5,29.84,North,-999,-999.0,-999.0,44,0.00,,,0.00,meteohub,2013-01-26 19:17:00,
2013-01-26 11:22:00,61.0,34.5,29.84,North,-999,-999.0,-999.0,44,0.00,,,0.00,meteohub,2013-01-26 19:22:00,
2013-01-26 11:27:00,61.0,34.5,29.84,North,-999,-999.0,-999.0,44,0.00,,,0.00,meteohub,2013-01-26 19:27:00,
2013-01-26 11:32:00,61.0,35.2,29.84,North,-999,-999.0,-999.0,44,0.00,,,0.00,meteohub,2013-01-26 19:32:00,
2013-01-26 11:37:00,61.0,34.5,29.84,North,-999,-999.0,-999.0,44,0.00,,,0.00,meteohub,2013-01-26 19:37:00,
2013-01-26 11:42:00,61.2,34.0,29.81,North,-999,-999.0,-999.0,44,0.00,,,0.00,meteohub,2013-01-26 19:42:00,
2013-01-26 11:47:00,61.0,33.1,29.81,North,-999,-999.0,-999.0,44,0.00,,,0.00,meteohub,2013-01-26 19:47:00,
2013-01-26 11:52:00,61.3,33.4,29.81,North,-999,-999.0,-999.0,44,0.00,,,0.00,meteohub,2013-01-26 19:52:00,
2013-01-26 11:57:00,61.5,34.3,29.81,North,-999,-999.0,-999.0,44,0.00,,,0.00,meteohub,2013-01-26 19:57:00,
2013-01-26 12:02:00,61.7,35.2,29.81,North,-999,-999.0,-999.0,44,0.00,,,0.00,meteohub,2013-01-26 20:02:00,
2013-01-26 12:07:00,61.9,35.2,29.81,North,-999,-999.0,-999.0,44,0.00,,,0.00,meteohub,2013-01-26 20:07:00,
2013-01-26 12:12:00,62.2,34.9,29.81,North,-999,-999.0,-999.0,44,0.00,,,0.00,meteohub,2013-01-26 20:12:00,
2013-01-26 12:17:00,62.2,34.9,29.81,North,-999,-999.0,-999.0,44,0.00,,,0.00,meteohub,2013-01-26 20:17:00,
2013-01-26 12:22:00,62.6,35.2,29.81,North,-999,-999.0,-999.0,44,0.00,,,0.00,meteohub,2013-01-26 20:22:00,
2013-01-26 12:27:00,62.6,34.5,29.81,North,-999,-999.0,-999.0,44,0.00,,,0.00,meteohub,2013-01-26 20:27:00,
2013-01-26 12:32:00,62.8,34.7,29.81,North,-999,-999.0,-999.0,44,0.00,,,0.00,meteohub,2013-01-26 20:32:00,
2013-01-26 12:37:00,63.0,34.9,29.81,North,-999,-999.0,-999.0,44,0.00,,,0.00,meteohub,2013-01-26 20:37:00,
2013-01-26 12:42:00,62.8,34.0,29.78,North,-999,-999.0,-999.0,43,0.00,,,0.00,meteohub,2013-01-26 20:42:00,
2013-01-26 12:47:00,62.4,34.3,29.78,North,-999,-999.0,-999.0,43,0.00,,,0.00,meteohub,2013-01-26 20:47:00,
2013-01-26 12:52:00,62.6,34.5,29.78,North,-999,-999.0,-999.0,43,0.00,,,0.00,meteohub,2013-01-26 20:52:00,
2013-01-26 12:57:00,62.6,35.2,29.78,North,-999,-999.0,-999.0,43,0.00,,,0.00,meteohub,2013-01-26 20:57:00,
2013-01-26 13:02:00,62.8,35.4,29.78,North,-999,-999.0,-999.0,43,0.00,,,0.00,meteohub,2013-01-26 21:02:00,
2013-01-26 13:07:00,63.0,35.6,29.78,North,-999,-999.0,-999.0,43,0.00,,,0.00,meteohub,2013-01-26 21:07:00,
2013-01-26 13:12:00,62.8,35.4,29.78,North,-999,-999.0,-999.0,43,0.00,,,0.00,meteohub,2013-01-26 21:12:00,
2013-01-26 13:17:00,63.0,35.6,29.78,North,-999,-999.0,-999.0,43,0.00,,,0.00,meteohub,2013-01-26 21:17:00,
2013-01-26 13:22:00,63.1,35.1,29.78,North,-999,-999.0,-999.0,43,0.00,,,0.00,meteohub,2013-01-26 21:22:00,
2013-01-26 13:27:00,62.6,35.2,29.78,North,-999,-999.0,-999.0,43,0.00,,,0.00,meteohub,2013-01-26 21:27:00,
2013-01-26 13:32:00,63.0,35.6,29.78,North,-999,-999.0,-999.0,42,0.00,,,0.00,meteohub,2013-01-26 21:32:00,
2013-01-26 13:37:00,63.0,35.6,29.78,North,-999,-999.0,-999.0,42,0.00,,,0.00,meteohub,2013-01-26 21:37:00,
2013-01-26 13:42:00,63.0,35.6,29.78,North,-999,-999.0,-999.0,42,0.00,,,0.00,meteohub,2013-01-26 21:42:00,
2013-01-26 13:47:00,63.1,35.8,29.78,North,-999,-999.0,-999.0,42,0.00,,,0.00,meteohub,2013-01-26 21:47:00,
2013-01-26 13:52:00,62.8,35.4,29.78,North,-999,-999.0,-999.0,42,0.00,,,0.00,meteohub,2013-01-26 21:52:00,
2013-01-26 13:57:00,62.6,35.2,29.78,North,-999,-999.0,-999.0,42,0.00,,,0.00,meteohub,2013-01-26 21:57:00,
2013-01-26 14:02:00,62.6,35.2,29.78,North,-999,-999.0,-999.0,42,0.00,,,0.00,meteohub,2013-01-26 22:02:00,
2013-01-26 14:07:00,62.6,35.2,29.78,North,-999,-999.0,-999.0,42,0.00,,,0.00,meteohub,2013-01-26 22:07:00,
2013-01-26 14:12:00,62.8,36.1,29.78,North,-999,-999.0,-999.0,42,0.00,,,0.00,meteohub,2013-01-26 22:12:00,
2013-01-26 14:17:00,63.0,36.3,29.78,North,-999,-999.0,-999.0,42,0.00,,,0.00,meteohub,2013-01-26 22:17:00,
2013-01-26 14:22:00,62.6,36.0,29.78,North,-999,-999.0,-999.0,42,0.00,,,0.00,meteohub,2013-01-26 22:22:00,
2013-01-26 14:27:00,61.7,35.2,29.78,North,-999,-999.0,-999.0,42,0.00,,,0.00,meteohub,2013-01-26 22:27:00,
2013-01-26 14:32:00,61.0,35.2,29.78,North,-999,-999.0,-999.0,42,0.00,,,0.00,meteohub,2013-01-26 22:32:00,
2013-01-26 14:37:00,60.4,35.4,29.78,North,-999,-999.0,-999.0,42,0.00,,,0.00,meteohub,2013-01-26 22:37:00,
2013-01-26 14:42:00,60.6,35.6,29.81,North,-999,-999.0,-999.0,42,0.00,,,0.00,meteohub,2013-01-26 22:42:00,
2013-01-26 14:47:00,60.6,36.1,29.81,North,-999,-999.0,-999.0,41,0.00,,,0.00,meteohub,2013-01-26 22:47:00,
2013-01-26 14:52:00,60.8,36.3,29.81,North,-999,-999.0,-999.0,41,0.00,,,0.00,meteohub,2013-01-26 22:52:00,
2013-01-26 14:57:00,60.6,34.2,29.81,North,-999,-999.0,-999.0,41,0.00,,,0.00,meteohub,2013-01-26 22:57:00,
2013-01-26 15:02:00,60.4,34.7,29.81,North,-999,-999.0,-999.0,41,0.00,,,0.00,meteohub,2013-01-26 23:02:00,
2013-01-26 15:07:00,60.3,33.8,29.81,North,-999,-999.0,-999.0,41,0.00,,,0.00,meteohub,2013-01-26 23:07:00,
2013-01-26 15:12:00,60.3,34.5,29.81,North,-999,-999.0,-999.0,42,0.00,,,0.00,meteohub,2013-01-26 23:12:00,
2013-01-26 15:17:00,60.3,34.5,29.81,North,-999,-999.0,-999.0,42,0.00,,,0.00,meteohub,2013-01-26 23:17:00,
2013-01-26 15:22:00,60.4,34.7,29.81,North,-999,-999.0,-999.0,42,0.00,,,0.00,meteohub,2013-01-26 23:22:00,
2013-01-26 15:27:00,60.3,34.5,29.81,North,-999,-999.0,-999.0,42,0.00,,,0.00,meteohub,2013-01-26 23:27:00,
2013-01-26 15:32:00,59.7,34.0,29.81,North,-999,-999.0,-999.0,42,0.00,,,0.00,meteohub,2013-01-26 23:32:00,
2013-01-26 15:37:00,59.5,34.0,29.81,North,-999,-999.0,-999.0,42,0.00,,,0.00,meteohub,2013-01-26 23:37:00,
2013-01-26 15:42:00,59.2,32.9,29.81,North,-999,-999.0,-999.0,42,0.00,,,0.00,meteohub,2013-01-26 23:42:00,
2013-01-26 15:47:00,58.8,33.3,29.81,North,-999,-999.0,-999.0,42,0.00,,,0.00,meteohub,2013-01-26 23:47:00,
2013-01-26 15:52:00,58.3,32.7,29.81,North,-999,-999.0,-999.0,41,0.00,,,0.00,meteohub,2013-01-26 23:52:00,
2013-01-26 15:57:00,58.1,33.3,29.81,North,-999,-999.0,-999.0,41,0.00,,,0.00,meteohub,2013-01-26 23:57:00,
2013-01-26 16:02:00,57.9,33.8,29.81,North,-999,-999.0,-999.0,42,0.00,,,0.00,meteohub,2013-01-27 00:02:00,
2013-01-26 16:07:00,57.7,34.2,29.81,North,-999,-999.0,-999.0,42,0.00,,,0.00,meteohub,2013-01-27 00:07:00,
2013-01-26 16:12:00,57.4,34.5,29.81,North,-999,-999.0,-999.0,41,0.00,,,0.00,meteohub,2013-01-27 00:12:00,
2013-01-26 16:17:00,57.2,35.4,29.81,North,-999,-999.0,-999.0,41,0.00,,,0.00,meteohub,2013-01-27 00:17:00,
2013-01-26 16:22:00,57.2,36.0,29.81,North,-999,-999.0,-999.0,42,0.00,,,0.00,meteohub,2013-01-27 00:22:00,
2013-01-26 16:27:00,57.0,36.0,29.81,North,-999,-999.0,-999.0,41,0.00,,,0.00,meteohub,2013-01-27 00:27:00,
2013-01-26 16:32:00,56.8,35.8,29.81,North,-999,-999.0,-999.0,41,0.00,,,0.00,meteohub,2013-01-27 00:32:00,
2013-01-26 16:37:00,56.7,35.1,29.81,North,-999,-999.0,-999.0,41,0.00,,,0.00,meteohub,2013-01-27 00:37:00,
2013-01-26 16:42:00,56.5,34.3,29.81,North,-999,-999.0,-999.0,41,0.00,,,0.00,meteohub,2013-01-27 00:42:00,
2013-01-26 16:47:00,56.3,34.2,29.81,North,-999,-999.0,-999.0,41,0.00,,,0.00,meteohub,2013-01-27 00:47:00,
2013-01-26 16:52:00,56.1,34.0,29.81,North,-999,-999.0,-999.0,41,0.00,,,0.00,meteohub,2013-01-27 00:52:00,
2013-01-26 16:57:00,55.9,34.3,29.81,North,-999,-999.0,-999.0,41,0.00,,,0.00,meteohub,2013-01-27 00:57:00,
2013-01-26 17:02:00,55.8,34.2,29.81,North,-999,-999.0,-999.0,41,0.00,,,0.00,meteohub,2013-01-27 01:02:00,
2013-01-26 17:07:00,55.6,34.0,29.81,North,-999,-999.0,-999.0,41,0.00,,,0.00,meteohub,2013-01-27 01:07:00,
2013-01-26 17:12:00,55.4,33.8,29.81,North,-999,-999.0,-999.0,41,0.00,,,0.00,meteohub,2013-01-27 01:12:00,
2013-01-26 17:17:00,55.2,34.2,29.81,North,-999,-999.0,-999.0,41,0.00,,,0.00,meteohub,2013-01-27 01:17:00,
2013-01-26 17:22:00,55.0,34.7,29.81,North,-999,-999.0,-999.0,41,0.00,,,0.00,meteohub,2013-01-27 01:22:00,
2013-01-26 17:27:00,54.9,34.5,29.81,North,-999,-999.0,-999.0,41,0.00,,,0.00,meteohub,2013-01-27 01:27:00,
2013-01-26 17:32:00,54.7,34.9,29.81,North,-999,-999.0,-999.0,41,0.00,,,0.00,meteohub,2013-01-27 01:32:00,
2013-01-26 17:37:00,54.5,34.7,29.81,North,-999,-999.0,-999.0,41,0.00,,,0.00,meteohub,2013-01-27 01:37:00,
2013-01-26 17:42:00,54.3,34.5,29.81,North,-999,-999.0,-999.0,41,0.00,,,0.00,meteohub,2013-01-27 01:42:00,
2013-01-26 17:47:00,54.1,34.3,29.81,North,-999,-999.0,-999.0,41,0.00,,,0.00,meteohub,2013-01-27 01:47:00,
2013-01-26 17:52:00,54.0,34.7,29.81,North,-999,-999.0,-999.0,41,0.00,,,0.00,meteohub,2013-01-27 01:52:00,
2013-01-26 17:57:00,53.8,34.5,29.81,North,-999,-999.0,-999.0,41,0.00,,,0.00,meteohub,2013-01-27 01:57:00,
2013-01-26 18:02:00,53.6,34.3,29.81,North,-999,-999.0,-999.0,41,0.00,,,0.00,meteohub,2013-01-27 02:02:00,
2013-01-26 18:07:00,53.4,35.2,29.81,North,-999,-999.0,-999.0,41,0.00,,,0.00,meteohub,2013-01-27 02:07:00,
2013-01-26 18:12:00,53.1,34.9,29.84,North,-999,-999.0,-999.0,41,0.00,,,0.00,meteohub,2013-01-27 02:12:00,
2013-01-26 18:17:00,53.1,35.4,29.84,North,-999,-999.0,-999.0,41,0.00,,,0.00,meteohub,2013-01-27 02:17:00,
2013-01-26 18:22:00,52.9,35.2,29.84,North,-999,-999.0,-999.0,41,0.00,,,0.00,meteohub,2013-01-27 02:22:00,
2013-01-26 18:27:00,52.9,35.2,29.84,North,-999,-999.0,-999.0,41,0.00,,,0.00,meteohub,2013-01-27 02:27:00,
2013-01-26 18:32:00,52.7,35.6,29.84,North,-999,-999.0,-999.0,41,0.00,,,0.00,meteohub,2013-01-27 02:32:00,
2013-01-26 18:37:00,52.5,35.4,29.84,North,-999,-999.0,-999.0,41,0.00,,,0.00,meteohub,2013-01-27 02:37:00,
2013-01-26 18:42:00,52.3,35.8,29.84,North,-999,-999.0,-999.0,41,0.00,,,0.00,meteohub,2013-01-27 02:42:00,
2013-01-26 18:47:00,52.3,35.8,29.84,North,-999,-999.0,-999.0,41,0.00,,,0.00,meteohub,2013-01-27 02:47:00,
2013-01-26 18:52:00,52.3,36.1,29.84,North,-999,-999.0,-999.0,41,0.00,,,0.00,meteohub,2013-01-27 02:52:00,
2013-01-26 18:57:00,52.2,36.0,29.84,North,-999,-999.0,-999.0,41,0.00,,,0.00,meteohub,2013-01-27 02:57:00,
2013-01-26 19:02:00,51.8,35.6,29.84,North,-999,-999.0,-999.0,41,0.00,,,0.00,meteohub,2013-01-27 03:02:00,
2013-01-26 19:07:00,51.6,36.0,29.84,North,-999,-999.0,-999.0,41,0.00,,,0.00,meteohub,2013-01-27 03:07:00,
2013-01-26 19:12:00,51.4,36.3,29.84,North,-999,-999.0,-999.0,41,0.00,,,0.00,meteohub,2013-01-27 03:12:00,
2013-01-26 19:17:00,51.1,36.3,29.84,North,-999,-999.0,-999.0,41,0.00,,,0.00,meteohub,2013-01-27 03:17:00,
2013-01-26 19:22:00,50.9,36.1,29.84,North,-999,-999.0,-999.0,41,0.00,,,0.00,meteohub,2013-01-27 03:22:00,
2013-01-26 19:27:00,50.7,36.5,29.84,North,-999,-999.0,-999.0,41,0.00,,,0.00,meteohub,2013-01-27 03:27:00,
2013-01-26 19:32:00,50.5,36.3,29.84,North,-999,-999.0,-999.0,41,0.00,,,0.00,meteohub,2013-01-27 03:32:00,
2013-01-26 19:37:00,50.2,36.3,29.84,North,-999,-999.0,-999.0,41,0.00,,,0.00,meteohub,2013-01-27 03:37:00,
2013-01-26 19:42:00,50.0,36.3,29.84,North,-999,-999.0,-999.0,41,0.00,,,0.00,meteohub,2013-01-27 03:42:00,
2013-01-26 19:47:00,49.8,36.5,29.84,North,-999,-999.0,-999.0,41,0.00,,,0.00,meteohub,2013-01-27 03:47:00,
2013-01-26 19:52:00,49.6,36.7,29.84,North,-999,-999.0,-999.0,41,0.00,,,0.00,meteohub,2013-01-27 03:52:00,
2013-01-26 19:57:00,49.5,36.5,29.84,North,-999,-999.0,-999.0,41,0.00,,,0.00,meteohub,2013-01-27 03:57:00,
2013-01-26 20:02:00,49.1,36.7,29.84,North,-999,-999.0,-999.0,41,0.00,,,0.00,meteohub,2013-01-27 04:02:00,
2013-01-26 20:07:00,48.9,36.9,29.84,North,-999,-999.0,-999.0,41,0.00,,,0.00,meteohub,2013-01-27 04:07:00,
2013-01-26 20:12:00,48.7,36.7,29.84,North,-999,-999.0,-999.0,41,0.00,,,0.00,meteohub,2013-01-27 04:12:00,
2013-01-26 20:17:00,48.7,36.7,29.84,North,-999,-999.0,-999.0,41,0.00,,,0.00,meteohub,2013-01-27 04:17:00,
2013-01-26 20:22:00,48.6,36.9,29.84,North,-999,-999.0,-999.0,41,0.00,,,0.00,meteohub,2013-01-27 04:22:00,
2013-01-26 20:27:00,48.4,37.2,29.84,North,-999,-999.0,-999.0,41,0.00,,,0.00,meteohub,2013-01-27 04:27:00,
2013-01-26 20:32:00,48.2,37.0,29.84,North,-999,-999.0,-999.0,41,0.00,,,0.00,meteohub,2013-01-27 04:32:00,
2013-01-26 20:37:00,48.0,37.2,29.84,North,-999,-999.0,-999.0,41,0.00,,,0.00,meteohub,2013-01-27 04:37:00,
2013-01-26 20:42:00,48.0,37.2,29.84,North,-999,-999.0,-999.0,41,0.00,,,0.00,meteohub,2013-01-27 04:42:00,
2013-01-26 20:47:00,48.0,37.6,29.84,North,-999,-999.0,-999.0,41,0.00,,,0.00,meteohub,2013-01-27 04:47:00,
2013-01-26 20:52:00,48.0,37.6,29.84,North,-999,-999.0,-999.0,41,0.00,,,0.00,meteohub,2013-01-27 04:52:00,
2013-01-26 20:57:00,47.8,37.4,29.84,North,-999,-999.0,-999.0,41,0.00,,,0.00,meteohub,2013-01-27 04:57:00,
2013-01-26 21:00:00,48.0,37.6,29.84,North,-999,-999.0,-999.0,41,0.00,,,0.00,meteohub,2013-01-27 05:00:00,
2013-01-26 21:07:00,47.5,36.7,29.84,North,-999,-999.0,-999.0,41,0.00,,,0.00,meteohub,2013-01-27 05:07:00,
2013-01-26 21:12:00,47.5,37.0,29.84,North,-999,-999.0,-999.0,41,0.00,,,0.00,meteohub,2013-01-27 05:12:00,
2013-01-26 21:15:00,47.3,36.9,29.84,North,-999,-999.0,-999.0,41,0.00,,,0.00,meteohub,2013-01-27 05:15:00,
2013-01-26 21:16:00,47.3,36.9,29.84,North,-999,-999.0,-999.0,41,0.00,,,0.00,meteohub,2013-01-27 05:16:00,
2013-01-26 21:21:00,47.3,36.9,29.84,North,-999,-999.0,-999.0,41,0.00,,,0.00,meteohub,2013-01-27 05:21:00,
2013-01-26 21:26:00,47.1,36.7,29.87,North,-999,-999.0,-999.0,41,0.00,,,0.00,meteohub,2013-01-27 05:26:00,
2013-01-26 21:31:00,47.1,36.7,29.87,North,-999,-999.0,-999.0,41,0.00,,,0.00,meteohub,2013-01-27 05:31:00,
2013-01-26 21:36:00,46.9,36.5,29.87,North,-999,-999.0,-999.0,41,0.00,,,0.00,meteohub,2013-01-27 05:36:00,
2013-01-26 21:41:00,46.8,36.7,29.87,North,-999,-999.0,-999.0,41,0.00,,,0.00,meteohub,2013-01-27 05:41:00,
2013-01-26 21:46:00,46.8,37.2,29.87,North,-999,-999.0,-999.0,41,0.00,,,0.00,meteohub,2013-01-27 05:46:00,
2013-01-26 21:51:00,46.8,37.2,29.87,North,-999,-999.0,-999.0,41,0.00,,,0.00,meteohub,2013-01-27 05:51:00,
2013-01-26 21:56:00,46.8,37.2,29.87,North,-999,-999.0,-999.0,41,0.00,,,0.00,meteohub,2013-01-27 05:56:00,
2013-01-26 22:02:00,46.6,37.4,29.87,North,-999,-999.0,-999.0,41,0.00,,,0.00,meteohub,2013-01-27 06:02:00,
2013-01-26 22:07:00,46.6,37.4,29.87,North,-999,-999.0,-999.0,40,0.00,,,0.00,meteohub,2013-01-27 06:07:00,
2013-01-26 22:12:00,46.6,37.4,29.87,North,-999,-999.0,-999.0,41,0.00,,,0.00,meteohub,2013-01-27 06:12:00,
2013-01-26 22:17:00,46.6,37.4,29.87,North,-999,-999.0,-999.0,41,0.00,,,0.00,meteohub,2013-01-27 06:17:00,
2013-01-26 22:22:00,46.6,37.4,29.87,North,-999,-999.0,-999.0,41,0.00,,,0.00,meteohub,2013-01-27 06:22:00,
2013-01-26 22:27:00,46.6,37.4,29.87,North,-999,-999.0,-999.0,41,0.00,,,0.00,meteohub,2013-01-27 06:27:00,
2013-01-26 22:32:00,46.4,37.2,29.87,North,-999,-999.0,-999.0,41,0.00,,,0.00,meteohub,2013-01-27 06:32:00,
2013-01-26 22:37:00,46.2,37.4,29.87,North,-999,-999.0,-999.0,41,0.00,,,0.00,meteohub,2013-01-27 06:37:00,
2013-01-26 22:42:00,46.2,37.4,29.87,North,-999,-999.0,-999.0,41,0.00,,,0.00,meteohub,2013-01-27 06:42:00,
2013-01-26 22:47:00,46.2,37.4,29.87,North,-999,-999.0,-999.0,41,0.00,,,0.00,meteohub,2013-01-27 06:47:00,
2013-01-26 22:52:00,46.2,37.8,29.87,North,-999,-999.0,-999.0,41,0.00,,,0.00,meteohub,2013-01-27 06:52:00,
2013-01-26 22:57:00,46.2,37.8,29.87,North,-999,-999.0,-999.0,41,0.00,,,0.00,meteohub,2013-01-27 06:57:00,
2013-01-26 23:02:00,46.2,37.8,29.87,North,-999,-999.0,-999.0,41,0.00,,,0.00,meteohub,2013-01-27 07:02:00,
2013-01-26 23:07:00,46.4,37.9,29.87,North,-999,-999.0,-999.0,40,0.00,,,0.00,meteohub,2013-01-27 07:07:00,
2013-01-26 23:13:00,46.8,38.3,29.87,North,-999,-999.0,-999.0,40,0.00,,,0.00,meteohub,2013-01-27 07:13:00,
2013-01-26 23:18:00,47.1,38.5,29.87,North,-999,-999.0,-999.0,40,0.00,,,0.00,meteohub,2013-01-27 07:18:00,
2013-01-26 23:23:00,47.7,38.7,29.87,North,-999,-999.0,-999.0,40,0.00,,,0.00,meteohub,2013-01-27 07:23:00,
2013-01-26 23:28:00,48.6,38.1,29.87,North,-999,-999.0,-999.0,40,0.00,,,0.00,meteohub,2013-01-27 07:28:00,
2013-01-26 23:34:00,48.9,37.8,29.87,North,-999,-999.0,-999.0,40,0.00,,,0.00,meteohub,2013-01-27 07:34:00,
2013-01-26 23:39:00,49.1,37.4,29.87,North,-999,-999.0,-999.0,40,0.00,,,0.00,meteohub,2013-01-27 07:39:00,
2013-01-26 23:44:00,49.1,37.0,29.87,North,-999,-999.0,-999.0,40,0.00,,,0.00,meteohub,2013-01-27 07:44:00,
2013-01-26 23:49:00,49.3,36.9,29.87,North,-999,-999.0,-999.0,40,0.00,,,0.00,meteohub,2013-01-27 07:49:00,
2013-01-26 23:54:00,49.3,36.3,29.87,North,-999,-999.0,-999.0,40,0.00,,,0.00,meteohub,2013-01-27 07:54:00,
2013-01-26 23:59:00,49.5,36.1,29.87,North,-999,-999.0,-999.0,40,0.00,,,0.00,meteohub,2013-01-27 07:59:00,